QPF
0.00 0.00 0.00 0.00 0.00 0.00 0.00 0.00 0.00 0.01 0.01 0.01 0.01 0.01 0.01 0.01 0.01 0.01 0.01 0.01 0.01 0.01 0.02 0.02 0.02 0.03 0.02 0.01 0.00 0.00 0.00 0.00 0.00 0.00 0.00 0.00 0.00 0.00 0.00 0.00 0.01 0.00 0.01
0.00 0.00 0.00 0.00 0.00 0.01 0.00 0.00 0.00 0.00 0.01 0.01 0.01 0.01 0.01 0.00 0.00 0.01 0.00 0.00 0.01 0.02 0.02 0.02 0.03 0.02 0.00 0.00 0.00 0.00 0.00 0.00 0.00 0.00 0.00 0.00 0.00 0.00 0.00 0.00 0.00 0.00 0.00
0.00 0.00 0.00 0.00 0.00 0.01 0.01 0.00 0.00 0.00 0.01 0.01 0.01 0.01 0.01 0.00 0.00 0.01 0.00 0.01 0.01 0.02 0.03 0.04 0.03 0.01 0.00 0.00 0.00 0.00 0.00 0.00 0.00 0.00 0.00 0.00 0.00 0.00 0.00 0.00 0.00 0.00 0.00
0.00 0.00 0.00 0.00 0.00 0.01 0.01 0.00 0.00 0.00 0.00 0.01 0.01 0.00 0.00 0.00 0.00 0.01 0.01 0.01 0.02 0.02 0.03 0.03 0.01 0.00 0.00 0.00 0.00 0.00 0.00 0.00 0.00 0.00 0.00 0.01 0.01 0.01 0.01 0.01 0.01 0.01 0.01
0.00 0.00 0.00 0.00 0.00 0.01 0.01 0.00 0.00 0.00 0.00 0.00 0.00 0.00 0.00 0.00 0.00 0.01 0.01 0.01 0.01 0.01 0.02 0.01 0.00 0.00 0.00 0.00 0.00 0.00 0.00 0.00 0.00 0.00 0.01 0.01 0.01 0.02 0.02 0.02 0.02 0.02 0.02
0.00 0.00 0.00 0.00 0.01 0.01 0.01 0.01 0.01 0.01 0.00 0.00 0.00 0.00 0.00 0.00 0.01 0.01 0.01 0.01 0.01 0.01 0.01 0.01 0.00 0.00 0.00 0.00 0.00 0.00 0.00 0.00 0.00 0.00 0.01 0.02 0.02 0.02 0.02 0.01 0.02 0.02 0.02
0.00 0.00 0.00 0.00 0.01 0.01 0.01 0.01 0.01 0.01 0.00 0.00 0.00 0.00 0.00 0.00 0.01 0.00 0.00 0.00 0.00 0.00 0.01 0.00 0.00 0.00 0.00 0.00 0.00 0.00 0.00 0.00 0.00 0.01 0.02 0.02 0.02 0.03 0.03 0.02 0.02 0.02 0.02
0.00 0.00 0.00 0.01 0.01 0.01 0.01 0.01 0.01 0.01 0.00 0.00 0.00 0.00 0.00 0.00 0.00 0.00 0.00 0.00 0.00 0.00 0.00 0.00 0.00 0.00 0.00 0.00 0.00 0.00 0.00 0.00 0.00 0.00 0.01 0.01 0.01 0.02 0.02 0.01 0.01 0.01 0.01
0.00 0.00 0.00 0.01 0.01 0.01 0.01 0.01 0.01 0.01 0.00 0.00 0.00 0.00 0.00 0.00 0.00 0.00 0.00 0.01 0.01 0.00 0.00 0.00 0.00 0.00 0.00 0.00 0.00 0.00 0.00 0.00 0.00 0.00 0.01 0.01 0.01 0.01 0.01 0.01 0.00 0.00 0.00
0.00 0.00 0.00 0.00 0.01 0.01 0.01 0.01 0.01 0.01 0.00 0.00 0.00 0.00 0.00 0.00 0.00 0.00 0.00 0.00 0.00 0.00 0.00 0.00 0.00 0.00 0.00 0.00 0.00 0.00 0.00 0.00 0.00 0.00 0.00 0.00 0.00 0.01 0.00 0.00 0.00 0.00 0.00
0.00 0.00 0.00 0.00 0.00 0.01 0.01 0.01 0.00 0.00 0.00 0.00 0.00 0.00 0.00 0.00 0.00 0.00 0.00 0.00 0.00 0.00 0.00 0.00 0.00 0.00 0.00 0.00 0.00 0.00 0.00 0.00 0.00 0.00 0.00 0.00 0.00 0.01 0.00 0.00 0.00 0.00 0.00
0.00 0.00 0.00 0.00 0.00 0.00 0.00 0.00 0.00 0.00 0.00 0.00 0.00 0.00 0.00 0.00 0.00 0.00 0.00 0.00 0.00 0.00 0.00 0.00 0.00 0.00 0.00 0.00 0.00 0.00 0.00 0.00 0.00 0.00 0.00 0.00 0.00 0.01 0.00 0.00 0.00 0.00 0.00
0.00 0.00 0.00 0.00 0.00 0.00 0.00 0.00 0.00 0.00 0.00 0.00 0.00 0.00 0.00 0.00 0.00 0.00 0.00 0.00 0.00 0.00 0.00 0.00 0.00 0.00 0.00 0.00 0.00 0.00 0.00 0.00 0.00 0.00 0.00 0.00 0.00 0.00 0.00 0.00 0.00 0.00 0.00
0.00 0.00 0.00 0.00 0.00 0.00 0.00 0.00 0.00 0.00 0.00 0.00 0.00 0.00 0.00 0.00 0.00 0.00 0.00 0.00 0.00 0.00 0.00 0.00 0.00 0.00 0.00 0.00 0.00 0.00 0.00 0.00 0.00 0.00 0.00 0.00 0.00 0.00 0.00 0.00 0.00 0.00 0.00
0.00 0.00 0.00 0.00 0.00 0.00 0.00 0.00 0.00 0.00 0.00 0.00 0.00 0.00 0.00 0.00 0.00 0.00 0.00 0.00 0.00 0.00 0.00 0.00 0.00 0.00 0.00 0.00 0.00 0.00 0.00 0.00 0.00 0.00 0.00 0.00 0.00 0.00 0.00 0.00 0.00 0.00 0.00
0.00 0.00 0.00 0.00 0.00 0.00 0.00 0.00 0.00 0.00 0.00 0.00 0.00 0.00 0.00 0.00 0.00 0.00 0.00 0.00 0.00 0.00 0.00 0.00 0.00 0.00 0.00 0.00 0.00 0.00 0.00 0.00 0.00 0.00 0.00 0.00 0.00 0.00 0.00 0.00 0.00 0.00 0.00
0.00 0.00 0.00 0.00 0.00 0.00 0.00 0.00 0.00 0.00 0.00 0.00 0.00 0.00 0.00 0.00 0.00 0.00 0.00 0.00 0.00 0.00 0.00 0.00 0.00 0.00 0.00 0.00 0.00 0.00 0.00 0.00 0.00 0.00 0.00 0.00 0.00 0.00 0.00 0.00 0.00 0.00 0.00
0.00 0.00 0.00 0.00 0.00 0.00 0.00 0.00 0.00 0.00 0.00 0.00 0.00 0.00 0.00 0.00 0.00 0.00 0.00 0.00 0.00 0.00 0.00 0.00 0.00 0.00 0.00 0.00 0.00 0.00 0.00 0.00 0.00 0.00 0.00 0.00 0.00 0.00 0.00 0.00 0.00 0.00 0.00
0.00 0.00 0.00 0.00 0.00 0.00 0.00 0.00 0.00 0.00 0.00 0.00 0.00 0.00 0.00 0.00 0.00 0.00 0.00 0.00 0.00 0.00 0.00 0.00 0.00 0.00 0.00 0.00 0.00 0.00 0.00 0.00 0.00 0.00 0.00 0.00 0.00 0.00 0.00 0.00 0.00 0.00 0.00
0.00 0.00 0.00 0.00 0.00 0.00 0.00 0.00 0.00 0.00 0.00 0.00 0.00 0.00 0.00 0.00 0.00 0.00 0.00 0.00 0.00 0.00 0.00 0.00 0.00 0.00 0.00 0.00 0.00 0.00 0.00 0.00 0.00 0.00 0.00 0.00 0.00 0.00 0.00 0.00 0.00 0.00 0.00
0.00 0.00 0.00 0.00 0.00 0.00 0.01 0.01 0.01 0.00 0.00 0.00 0.00 0.00 0.00 0.00 0.00 0.00 0.00 0.00 0.00 0.00 0.00 0.00 0.00 0.00 0.00 0.00 0.00 0.00 0.00 0.00 0.00 0.00 0.00 0.00 0.00 0.00 0.00 0.00 0.00 0.00 0.00
0.00 0.00 0.00 0.00 0.01 0.01 0.01 0.01 0.01 0.00 0.00 0.00 0.00 0.00 0.00 0.01 0.01 0.01 0.01 0.01 0.01 0.00 0.00 0.00 0.00 0.00 0.00 0.00 0.00 0.00 0.00 0.00 0.00 0.00 0.00 0.00 0.00 0.00 0.00 0.00 0.00 0.00 0.00
0.00 0.00 0.00 0.00 0.00 0.01 0.01 0.01 0.01 0.01 0.00 0.00 0.00 0.00 0.00 0.00 0.01 0.01 0.01 0.01 0.01 0.01 0.01 0.01 0.01 0.01 0.01 0.00 0.00 0.00 0.00 0.00 0.00 0.00 0.00 0.00 0.00 0.00 0.00 0.00 0.00 0.00 0.00
0.00 0.00 0.00 0.00 0.00 0.00 0.01 0.01 0.01 0.00 0.00 0.00 0.00 0.00 0.00 0.00 0.00 0.00 0.01 0.02 0.02 0.02 0.02 0.03 0.03 0.03 0.03 0.02 0.02 0.01 0.01 0.00 0.00 0.00 0.00 0.00 0.00 0.00 0.00 0.00 0.00 0.00 0.01
0.00 0.00 0.00 0.00 0.00 0.00 0.00 0.00 0.01 0.00 0.00 0.00 0.00 0.00 0.00 0.00 0.00 0.01 0.01 0.02 0.02 0.02 0.03 0.04 0.05 0.05 0.05 0.05 0.04 0.04 0.03 0.02 0.01 0.01 0.01 0.01 0.01 0.02 0.02 0.02 0.02 0.02 0.02
0.00 0.00 0.00 0.00 0.00 0.00 0.00 0.00 0.00 0.00 0.00 0.00 0.00 0.00 0.00 0.01 0.01 0.02 0.02 0.02 0.03 0.03 0.04 0.06 0.06 0.08 0.10 0.09 0.07 0.06 0.06 0.06 0.07 0.08 0.07 0.05 0.05 0.05 0.05 0.04 0.04 0.03 0.03
MSLP
1011.97 1012.09 1012.30 1012.59 1012.95 1013.36 1013.79 1014.21 1014.58 1014.89 1015.16 1015.39 1015.60 1015.82 1016.07 1016.33 1016.59 1016.86 1017.09 1017.28 1017.43 1017.55 1017.66 1017.76 1017.88 1018.01 1018.16 1018.31 1018.45 1018.57 1018.67 1018.75 1018.83 1018.91 1019.00 1019.10 1019.21 1019.31 1019.38 1019.42 1019.43 1019.42 1019.41
1011.76 1011.97 1012.27 1012.65 1013.10 1013.57 1014.02 1014.43 1014.79 1015.08 1015.32 1015.55 1015.77 1016.01 1016.27 1016.55 1016.82 1017.07 1017.29 1017.48 1017.63 1017.77 1017.92 1018.07 1018.24 1018.42 1018.60 1018.75 1018.88 1018.96 1019.01 1019.05 1019.09 1019.14 1019.23 1019.33 1019.45 1019.56 1019.65 1019.69 1019.70 1019.67 1019.64
1011.48 1011.78 1012.19 1012.69 1013.23 1013.77 1014.26 1014.69 1015.04 1015.33 1015.57 1015.79 1016.01 1016.25 1016.51 1016.77 1017.02 1017.24 1017.43 1017.59 1017.74 1017.90 1018.08 1018.29 1018.51 1018.74 1018.95 1019.12 1019.23 1019.28 1019.29 1019.28 1019.28 1019.32 1019.40 1019.51 1019.64 1019.77 1019.87 1019.93 1019.94 1019.92 1019.88
1011.19 1011.58 1012.10 1012.70 1013.34 1013.95 1014.51 1014.96 1015.33 1015.62 1015.86 1016.08 1016.30 1016.53 1016.77 1017.00 1017.21 1017.38 1017.53 1017.66 1017.80 1017.97 1018.18 1018.43 1018.71 1018.99 1019.23 1019.40 1019.50 1019.53 1019.51 1019.47 1019.45 1019.48 1019.55 1019.67 1019.82 1019.97 1020.08 1020.16 1020.19 1020.18 1020.15
1010.95 1011.42 1012.03 1012.73 1013.45 1014.13 1014.73 1015.23 1015.61 1015.91 1016.16 1016.38 1016.60 1016.82 1017.04 1017.23 1017.39 1017.52 1017.63 1017.73 1017.86 1018.04 1018.27 1018.57 1018.88 1019.19 1019.46 1019.64 1019.74 1019.75 1019.71 1019.66 1019.63 1019.65 1019.73 1019.86 1020.02 1020.19 1020.32 1020.42 1020.47 1020.48 1020.47
1010.81 1011.34 1012.02 1012.79 1013.57 1014.30 1014.94 1015.45 1015.85 1016.16 1016.42 1016.65 1016.87 1017.09 1017.29 1017.46 1017.59 1017.68 1017.76 1017.84 1017.97 1018.16 1018.42 1018.74 1019.08 1019.41 1019.68 1019.86 1019.95 1019.96 1019.92 1019.86 1019.84 1019.87 1019.96 1020.11 1020.28 1020.46 1020.61 1020.72 1020.79 1020.83 1020.85
1010.83 1011.40 1012.11 1012.91 1013.72 1014.46 1015.10 1015.62 1016.02 1016.34 1016.61 1016.85 1017.09 1017.31 1017.51 1017.67 1017.79 1017.88 1017.95 1018.04 1018.17 1018.37 1018.65 1018.98 1019.33 1019.65 1019.92 1020.09 1020.17 1020.17 1020.13 1020.09 1020.08 1020.13 1020.24 1020.41 1020.60 1020.79 1020.95 1021.07 1021.15 1021.21 1021.26
1011.02 1011.60 1012.31 1013.11 1013.89 1014.61 1015.22 1015.72 1016.11 1016.43 1016.71 1016.97 1017.22 1017.47 1017.68 1017.87 1018.00 1018.11 1018.20 1018.31 1018.46 1018.68 1018.96 1019.29 1019.63 1019.93 1020.17 1020.32 1020.38 1020.37 1020.34 1020.32 1020.34 1020.42 1020.57 1020.76 1020.96 1021.16 1021.32 1021.45 1021.54 1021.61 1021.67
1011.36 1011.92 1012.61 1013.35 1014.08 1014.73 1015.29 1015.75 1016.11 1016.43 1016.71 1017.00 1017.28 1017.56 1017.81 1018.03 1018.20 1018.34 1018.47 1018.62 1018.80 1019.04 1019.33 1019.64 1019.95 1020.21 1020.41 1020.52 1020.55 1020.54 1020.51 1020.51 1020.57 1020.70 1020.88 1021.10 1021.33 1021.53 1021.70 1021.82 1021.91 1021.98 1022.06
1011.80 1012.33 1012.96 1013.62 1014.26 1014.83 1015.31 1015.71 1016.05 1016.35 1016.65 1016.95 1017.27 1017.58 1017.88 1018.14 1018.36 1018.55 1018.72 1018.91 1019.13 1019.38 1019.66 1019.95 1020.22 1020.44 1020.58 1020.64 1020.64 1020.62 1020.61 1020.64 1020.74 1020.92 1021.15 1021.40 1021.65 1021.87 1022.04 1022.16 1022.24 1022.31 1022.39
1012.27 1012.75 1013.31 1013.88 1014.41 1014.89 1015.29 1015.63 1015.93 1016.23 1016.53 1016.86 1017.21 1017.55 1017.88 1018.18 1018.44 1018.67 1018.89 1019.11 1019.36 1019.62 1019.90 1020.16 1020.38 1020.55 1020.63 1020.65 1020.63 1020.60 1020.60 1020.67 1020.82 1021.04 1021.32 1021.61 1021.89 1022.13 1022.31 1022.43 1022.52 1022.59 1022.66
1012.69 1013.13 1013.61 1014.08 1014.51 1014.89 1015.21 1015.50 1015.78 1016.07 1016.39 1016.73 1017.10 1017.47 1017.82 1018.14 1018.43 1018.68 1018.93 1019.17 1019.43 1019.70 1019.96 1020.20 1020.39 1020.51 1020.55 1020.54 1020.50 1020.47 1020.50 1020.59 1020.78 1021.05 1021.38 1021.71 1022.03 1022.29 1022.50 1022.64 1022.73 1022.81 1022.88
1013.01 1013.40 1013.81 1014.19 1014.53 1014.82 1015.09 1015.34 1015.60 1015.89 1016.22 1016.58 1016.96 1017.34 1017.69 1018.01 1018.30 1018.56 1018.81 1019.06 1019.33 1019.59 1019.85 1020.07 1020.23 1020.32 1020.35 1020.32 1020.28 1020.26 1020.31 1020.44 1020.67 1020.97 1021.33 1021.71 1022.06 1022.36 1022.59 1022.76 1022.88 1022.98 1023.07
1013.18 1013.53 1013.87 1014.18 1014.45 1014.69 1014.91 1015.14 1015.40 1015.70 1016.04 1016.41 1016.79 1017.16 1017.49 1017.79 1018.06 1018.31 1018.55 1018.79 1019.05 1019.32 1019.57 1019.78 1019.94 1020.03 1020.06 1020.04 1020.02 1020.03 1020.10 1020.26 1020.51 1020.84 1021.22 1021.62 1022.00 1022.33 1022.60 1022.81 1022.97 1023.11 1023.23
1013.17 1013.50 1013.80 1014.05 1014.28 1014.48 1014.69 1014.92 1015.19 1015.50 1015.85 1016.22 1016.59 1016.93 1017.23 1017.50 1017.73 1017.95 1018.17 1018.41 1018.66 1018.93 1019.19 1019.41 1019.59 1019.70 1019.76 1019.77 1019.78 1019.82 1019.92 1020.10 1020.36 1020.70 1021.08 1021.48 1021.87 1022.22 1022.53 1022.79 1023.00 1023.19 1023.36
1013.01 1013.32 1013.59 1013.82 1014.02 1014.22 1014.43 1014.67 1014.96 1015.29 1015.65 1016.01 1016.35 1016.66 1016.93 1017.15 1017.35 1017.53 1017.74 1017.97 1018.22 1018.50 1018.78 1019.04 1019.25 1019.41 1019.51 1019.58 1019.63 1019.71 1019.83 1020.02 1020.27 1020.59 1020.95 1021.33 1021.70 1022.06 1022.39 1022.69 1022.96 1023.21 1023.44
1012.74 1013.02 1013.28 1013.50 1013.70 1013.91 1014.14 1014.41 1014.72 1015.06 1015.42 1015.77 1016.09 1016.37 1016.59 1016.78 1016.94 1017.11 1017.30 1017.53 1017.81 1018.11 1018.42 1018.72 1018.98 1019.19 1019.36 1019.49 1019.59 1019.71 1019.85 1020.03 1020.27 1020.54 1020.85 1021.18 1021.51 1021.85 1022.19 1022.51 1022.83 1023.14 1023.44
1012.40 1012.67 1012.92 1013.14 1013.36 1013.59 1013.85 1014.14 1014.47 1014.83 1015.18 1015.51 1015.80 1016.04 1016.23 1016.39 1016.54 1016.70 1016.90 1017.15 1017.45 1017.78 1018.13 1018.47 1018.79 1019.06 1019.29 1019.48 1019.64 1019.79 1019.95 1020.12 1020.31 1020.53 1020.77 1021.04 1021.31 1021.61 1021.93 1022.26 1022.61 1022.97 1023.33
1012.07 1012.32 1012.56 1012.79 1013.02 1013.28 1013.56 1013.88 1014.23 1014.58 1014.92 1015.22 1015.48 1015.69 1015.86 1016.01 1016.15 1016.33 1016.55 1016.83 1017.15 1017.52 1017.91 1018.29 1018.65 1018.98 1019.25 1019.49 1019.70 1019.88 1020.05 1020.21 1020.36 1020.53 1020.70 1020.89 1021.10 1021.35 1021.63 1021.95 1022.31 1022.70 1023.10
1011.81 1012.03 1012.25 1012.48 1012.73 1013.00 1013.31 1013.64 1013.98 1014.32 1014.63 1014.91 1015.14 1015.32 1015.47 1015.62 1015.78 1015.97 1016.23 1016.53 1016.89 1017.29 1017.70 1018.11 1018.49 1018.85 1019.16 1019.44 1019.68 1019.89 1020.07 1020.22 1020.35 1020.47 1020.59 1020.72 1020.87 1021.06 1021.30 1021.60 1021.96 1022.36 1022.78
1011.66 1011.84 1012.03 1012.25 1012.50 1012.78 1013.09 1013.42 1013.75 1014.06 1014.34 1014.57 1014.76 1014.92 1015.06 1015.21 1015.39 1015.61 1015.89 1016.22 1016.60 1017.01 1017.43 1017.84 1018.23 1018.59 1018.92 1019.22 1019.48 1019.71 1019.91 1020.08 1020.21 1020.31 1020.40 1020.50 1020.61 1020.76 1020.98 1021.26 1021.60 1022.00 1022.42
1011.65 1011.78 1011.93 1012.13 1012.36 1012.63 1012.93 1013.23 1013.53 1013.80 1014.04 1014.23 1014.38 1014.51 1014.63 1014.78 1014.97 1015.21 1015.51 1015.85 1016.24 1016.63 1017.04 1017.43 1017.79 1018.14 1018.47 1018.77 1019.05 1019.31 1019.53 1019.73 1019.89 1020.02 1020.12 1020.22 1020.33 1020.49 1020.69 1020.96 1021.30 1021.68 1022.09
1011.79 1011.86 1011.96 1012.12 1012.31 1012.55 1012.82 1013.09 1013.34 1013.56 1013.74 1013.88 1013.99 1014.08 1014.19 1014.33 1014.52 1014.76 1015.06 1015.40 1015.76 1016.13 1016.49 1016.83 1017.16 1017.47 1017.77 1018.07 1018.36 1018.64 1018.91 1019.16 1019.38 1019.57 1019.73 1019.89 1020.05 1020.24 1020.47 1020.75 1021.09 1021.47 1021.86
1012.06 1012.07 1012.12 1012.22 1012.37 1012.56 1012.77 1012.99 1013.19 1013.35 1013.48 1013.56 1013.63 1013.69 1013.77 1013.89 1014.06 1014.29 1014.56 1014.87 1015.19 1015.51 1015.81 1016.09 1016.36 1016.63 1016.90 1017.18 1017.48 1017.79 1018.11 1018.43 1018.73 1019.01 1019.27 1019.52 1019.77 1020.03 1020.32 1020.65 1021.01 1021.39 1021.77
1012.43 1012.39 1012.39 1012.43 1012.52 1012.65 1012.80 1012.96 1013.10 1013.21 1013.28 1013.31 1013.34 1013.36 1013.41 1013.50 1013.64 1013.83 1014.07 1014.32 1014.58 1014.83 1015.06 1015.28 1015.49 1015.71 1015.95 1016.21 1016.52 1016.87 1017.24 1017.62 1018.02 1018.40 1018.78 1019.14 1019.51 1019.87 1020.26 1020.65 1021.05 1021.45 1021.82
1012.86 1012.79 1012.74 1012.73 1012.77 1012.84 1012.93 1013.03 1013.11 1013.16 1013.19 1013.18 1013.16 1013.15 1013.17 1013.22 1013.32 1013.46 1013.63 1013.82 1014.01 1014.19 1014.36 1014.52 1014.68 1014.85 1015.07 1015.32 1015.64 1016.01 1016.42 1016.87 1017.35 1017.83 1018.32 1018.80 1019.28 1019.77 1020.25 1020.72 1021.17 1021.59 1021.97
Thickness
5778 5776 5771 5769 5766 5764 5762 5760 5757 5755 5753 5751 5750 5748 5746 5745 5743 5742 5741 5739 5738 5737 5736 5735 5733 5731 5730 5728 5727 5725 5724 5722 5721 5720 5719 5717 5716 5715 5714 5714 5713 5711 5710
5780 5774 5769 5767 5764 5761 5759 5756 5754 5752 5750 5748 5746 5744 5743 5741 5740 5738 5737 5736 5735 5734 5732 5731 5729 5727 5725 5723 5721 5720 5719 5718 5717 5715 5714 5713 5711 5710 5709 5708 5708 5706 5705
5777 5771 5767 5764 5761 5758 5755 5753 5750 5748 5746 5744 5743 5741 5739 5737 5736 5735 5734 5733 5732 5730 5728 5726 5724 5722 5720 5718 5717 5715 5714 5714 5712 5711 5710 5709 5707 5706 5705 5704 5703 5702 5701
5774 5768 5764 5761 5758 5755 5752 5749 5747 5744 5742 5740 5739 5737 5735 5734 5733 5732 5731 5730 5728 5726 5724 5722 5719 5717 5715 5714 5712 5711 5711 5710 5709 5708 5707 5705 5704 5702 5701 5700 5698 5697 5696
5770 5765 5761 5757 5754 5751 5748 5745 5743 5741 5739 5737 5735 5733 5732 5731 5730 5729 5727 5726 5724 5722 5720 5717 5715 5713 5711 5709 5708 5707 5706 5706 5705 5705 5703 5701 5699 5697 5696 5694 5693 5692 5691
5767 5762 5756 5753 5750 5747 5744 5742 5739 5737 5735 5733 5731 5730 5728 5727 5726 5725 5723 5721 5719 5717 5715 5712 5710 5708 5706 5704 5703 5702 5702 5701 5701 5700 5698 5696 5694 5692 5691 5689 5687 5686 5685
5764 5758 5751 5749 5746 5743 5741 5738 5736 5733 5731 5729 5728 5726 5725 5723 5722 5720 5719 5717 5715 5712 5710 5708 5705 5703 5701 5700 5698 5697 5697 5697 5696 5695 5692 5690 5688 5686 5685 5683 5681 5680 5679
5760 5753 5747 5744 5742 5739 5737 5734 5732 5730 5728 5726 5724 5723 5721 5719 5718 5716 5714 5713 5710 5708 5705 5703 5701 5698 5696 5695 5693 5693 5692 5692 5692 5690 5686 5684 5682 5681 5679 5677 5675 5674 5673
5754 5747 5742 5739 5737 5735 5733 5731 5728 5727 5724 5722 5721 5719 5717 5715 5713 5712 5710 5708 5706 5703 5701 5698 5696 5694 5692 5690 5689 5688 5688 5688 5687 5685 5682 5679 5676 5675 5673 5671 5669 5668 5667
5748 5743 5738 5736 5733 5731 5728 5727 5725 5723 5721 5719 5717 5715 5713 5711 5709 5707 5705 5703 5701 5699 5697 5694 5692 5690 5688 5686 5685 5684 5684 5684 5683 5680 5677 5674 5672 5669 5667 5665 5663 5661 5660
5740 5739 5736 5733 5731 5728 5726 5723 5721 5719 5717 5715 5713 5711 5709 5708 5706 5703 5702 5699 5697 5695 5693 5691 5689 5687 5685 5683 5682 5681 5680 5680 5679 5676 5672 5669 5667 5664 5662 5660 5657 5655 5654
5731 5733 5733 5731 5729 5727 5724 5720 5718 5715 5713 5712 5710 5708 5707 5706 5704 5701 5698 5696 5693 5691 5689 5687 5686 5684 5682 5681 5679 5678 5678 5678 5676 5673 5669 5666 5663 5660 5657 5654 5652 5650 5648
5725 5727 5728 5728 5726 5724 5722 5718 5716 5714 5711 5709 5708 5706 5705 5704 5702 5698 5695 5692 5690 5688 5686 5684 5682 5681 5680 5679 5677 5676 5675 5675 5674 5670 5665 5662 5659 5655 5652 5649 5647 5644 5642
5719 5720 5723 5723 5722 5721 5719 5716 5715 5713 5710 5708 5707 5705 5703 5702 5700 5697 5693 5690 5688 5686 5684 5681 5680 5679 5679 5678 5676 5675 5673 5672 5671 5667 5662 5659 5655 5651 5648 5645 5642 5639 5636
5715 5716 5717 5718 5717 5717 5715 5714 5712 5711 5709 5707 5706 5704 5701 5699 5697 5695 5692 5690 5687 5685 5683 5680 5678 5678 5677 5676 5674 5673 5671 5669 5667 5663 5659 5655 5651 5647 5644 5640 5637 5634 5632
5712 5712 5713 5712 5713 5712 5711 5710 5709 5708 5707 5705 5703 5701 5699 5697 5694 5692 5690 5688 5686 5684 5682 5679 5677 5676 5674 5673 5671 5669 5667 5665 5663 5660 5655 5651 5647 5644 5640 5637 5633 5630 5627
5709 5710 5709 5709 5709 5707 5707 5706 5705 5704 5703 5702 5700 5698 5696 5694 5692 5689 5687 5685 5683 5681 5679 5676 5674 5672 5670 5668 5666 5664 5663 5661 5658 5656 5652 5648 5643 5640 5636 5633 5629 5626 5622
5706 5706 5707 5707 5705 5703 5702 5701 5700 5700 5699 5698 5697 5695 5693 5691 5689 5686 5683 5681 5679 5677 5675 5672 5669 5666 5664 5662 5660 5658 5657 5655 5653 5651 5648 5644 5640 5635 5632 5628 5625 5621 5617
5703 5703 5703 5703 5702 5700 5699 5697 5696 5695 5695 5694 5693 5692 5690 5687 5685 5683 5680 5678 5675 5673 5671 5668 5665 5661 5657 5655 5653 5651 5650 5649 5647 5645 5643 5640 5637 5632 5627 5623 5619 5616 5612
5698 5699 5699 5700 5699 5698 5696 5694 5692 5691 5690 5690 5689 5688 5686 5684 5682 5679 5676 5674 5671 5668 5666 5663 5659 5656 5653 5649 5647 5644 5642 5641 5640 5638 5636 5634 5632 5628 5623 5619 5614 5610 5606
5690 5691 5692 5693 5694 5693 5691 5689 5687 5685 5685 5684 5684 5683 5681 5680 5678 5675 5673 5670 5667 5664 5661 5658 5654 5649 5646 5643 5636 5632 5632 5633 5632 5631 5629 5627 5625 5622 5618 5614 5609 5604 5600
5680 5682 5684 5686 5687 5688 5688 5687 5685 5684 5683 5682 5681 5679 5677 5674 5672 5670 5668 5665 5662 5659 5656 5653 5649 5643 5639 5636 5629 5621 5618 5619 5622 5624 5621 5619 5617 5614 5611 5607 5603 5599 5594
5669 5671 5675 5677 5679 5680 5681 5681 5680 5679 5678 5676 5676 5675 5673 5670 5667 5664 5662 5660 5657 5654 5650 5648 5644 5639 5633 5629 5627 5620 5614 5614 5612 5613 5613 5611 5608 5606 5603 5599 5595 5592 5587
5660 5662 5665 5668 5670 5672 5673 5672 5670 5669 5668 5670 5670 5670 5669 5667 5664 5660 5658 5655 5651 5648 5645 5642 5639 5634 5628 5622 5618 5618 5615 5613 5606 5600 5600 5600 5598 5595 5592 5589 5585 5582 5578
5650 5652 5655 5658 5660 5662 5663 5663 5662 5662 5662 5663 5663 5662 5662 5661 5660 5657 5653 5650 5646 5643 5639 5636 5632 5628 5624 5618 5613 5609 5605 5601 5599 5593 5587 5586 5585 5583 5581 5578 5574 5571 5567
5640 5642 5645 5647 5650 5652 5653 5654 5654 5653 5653 5653 5652 5652 5653 5653 5652 5651 5648 5644 5641 5637 5633 5629 5625 5621 5617 5612 5607 5603 5598 5594 5591 5586 5581 5573 5571 5569 5567 5564 5562 5559 5555